[[{"header":{"parameterUnit":"m.s-1","parameterCategory":1,"la1":30.2991,"la2":30.254,"lo1":-89.0895,"lo2":-89.0444,"dy":0.0017,"dx":0.0017,"nx":28,"ny":28,"refTime":"2024-07-13T09:00:00:Z","depth":0,"parameterNumber":2,"parameterNumberName":"U-component_of_WINDS"},"data":[0,0,0,0,0,0,0,0,0,0,0,0,0,0,0,0,0,0,0,0,0,0,0,0,0,0,0,0,0,0,0,0,0,0,0,0,0,0,0,0,0,0,0,0,0,0,0,0,0,0,0,0,0,0,0,0,0,0,3.2418,3.242,0,3.2578,3.258,3.2582,3.2581,3.2579,3.2577,3.2575,3.2738,3.2745,3.2751,0,0,0,0,0,0,0,0,0,0,0,0,0,3.211,3.2116,3.2418,3.242,3.2422,3.2578,3.258,3.2582,3.2581,3.2579,3.2576,3.2574,3.2736,3.2744,3.2751,0,0,0,0,0,0,0,0,0,0,0,0,0,3.2254,3.2118,3.2417,3.244,3.2444,3.2577,3.258,3.2583,3.2582,3.2579,3.2575,3.2573,3.2734,3.2743,3.2752,3.2874,0,0,3.2781,3.2785,0,0,0,0,0,0,0,0,3.2246,3.2266,3.2435,3.2439,3.2443,3.2556,3.2531,3.268,3.2583,3.2529,3.2575,3.2571,3.268,3.2694,3.2731,3.2881,3.2888,3.2782,3.2788,3.2792,3.2795,0,0,0,0,0,0,0,3.2236,3.2259,3.2481,3.2437,3.2442,3.2442,3.2459,3.256,3.262,3.2534,3.2534,3.2553,3.2682,3.2722,3.2735,3.2891,3.2782,3.279,3.2796,3.28,3.3147,3.315,0,0,0,0,0,0,3.2222,3.225,3.2476,3.2486,3.2335,3.245,3.2469,3.2523,3.2619,3.2631,3.2556,3.2552,3.2707,3.2724,3.274,3.2887,3.2792,3.2801,3.2806,3.3143,3.3147,3.3151,0,0,0,0,0,0,3.2215,3.2242,3.247,3.2368,3.2397,3.2459,3.2519,3.2528,3.2568,3.2636,3.2647,3.2585,3.2705,3.2727,3.284,3.2893,3.2805,3.2814,3.3139,3.3144,3.3149,3.3182,0,0,0,0,0,0,3.2206,3.2239,3.2286,3.2369,3.2403,3.2567,3.2523,3.2533,3.2584,3.2581,3.2666,3.2677,3.2705,3.2826,3.2849,3.2904,3.2821,3.3135,3.3141,3.3148,3.3176,3.3187,3.3197,0,0,0,0,0,3.2195,3.229,3.2289,3.2316,3.2463,3.257,3.2589,3.2618,3.2588,3.2636,3.2679,3.2675,3.2884,3.2838,3.2864,3.2922,3.3131,3.3139,3.3147,3.3171,3.3185,3.3197,0,0,0,0,0,0,3.2211,3.2301,3.2301,3.2425,3.249,3.257,3.263,3.2632,3.2707,3.2701,3.2734,3.2753,3.2866,3.2906,3.2853,3.3044,3.3004,3.3017,3.3013,3.3027,3.3037,3.3024,3.2829,0,0,0,0,0,3.2229,3.2309,3.2383,3.2485,3.2518,3.2568,3.2616,3.2633,3.2701,3.2729,3.2781,3.2847,3.2927,3.298,3.3058,3.3183,3.32,3.3236,3.3246,3.3254,3.3265,3.3332,3.3348,3.3177,3.3177,3.3177,0,0,3.2267,3.2326,3.2374,3.249,3.2542,3.2623,3.2591,3.2679,3.2739,3.2742,3.2851,3.2892,3.2968,3.3087,3.3142,3.3124,3.3316,3.3265,3.3271,3.3277,3.3342,3.3358,3.3372,3.3183,3.3182,3.3181,0,0,3.2376,3.243,3.252,3.2573,3.2652,3.2685,3.2707,3.2787,3.2813,3.2924,3.2927,3.2999,3.3138,3.3191,3.3236,3.3366,3.3363,3.339,3.3444,3.3509,3.3522,3.3534,3.3578,3.3594,3.3401,3.3401,3.3401,0,3.2413,3.2535,3.2566,3.2653,3.2703,3.271,3.2801,3.2851,3.2951,3.2985,3.2964,3.3136,3.3189,3.3319,3.335,3.3388,3.3412,3.338,3.3518,3.353,3.3542,3.3584,3.3601,3.3404,3.3404,3.3403,3.3403,0,3.2575,3.266,3.2724,3.282,3.2878,3.2966,3.3009,3.3064,3.3076,3.3111,3.3222,3.3285,3.3375,3.3408,3.3421,3.354,3.3526,3.3511,3.3471,3.356,3.36,3.3617,3.3408,3.3407,3.3406,3.3405,0,0,3.2698,3.281,3.2833,3.2876,3.2964,3.303,3.3118,3.3206,3.3251,3.3321,3.3395,3.3511,3.3498,3.3549,3.3569,3.3626,3.3721,3.3604,3.3606,3.3621,3.3854,3.3862,3.3881,3.3721,3.3725,3.3727,3.3846,0,3.2815,3.2973,3.3002,3.3139,3.3216,3.3224,3.3301,3.3363,3.3398,3.3469,3.3508,3.3589,3.3567,3.3597,3.3655,3.3697,3.3768,3.369,3.3789,3.3792,3.3767,3.3902,3.3912,3.4021,3.3863,3.3865,3.3867,0,3.2973,3.3045,3.3189,3.3265,3.3299,3.3368,3.3449,3.3518,3.3588,3.3609,3.3666,3.3679,3.377,3.3728,3.3853,3.3799,3.3842,3.3869,3.3874,3.3883,3.3833,3.3911,3.4057,3.4072,3.3893,3.3891,3.3889,0,3.3044,3.3179,3.3281,3.3319,3.3411,3.3458,3.3499,3.3566,3.3616,3.3688,3.3721,3.3803,3.3847,3.391,3.3943,3.391,3.4066,3.4027,3.4085,3.4084,3.4115,3.4112,3.4267,3.4147,3.4147,3.4146,3.4146,0,3.317,3.3258,3.3315,3.3378,3.3475,3.3509,3.3604,3.3644,3.3704,3.3774,3.3787,3.3852,3.3894,3.3966,3.3993,3.4091,3.4112,3.4131,3.4137,3.4129,3.4126,3.4155,3.4147,3.4151,3.415,3.4149,3.4148,0,3.3266,3.3308,3.3421,3.3499,3.352,3.3588,3.3655,3.3716,3.3751,3.384,3.3863,3.3918,3.4003,3.4044,3.4149,3.4167,3.4278,3.428,3.4254,3.4256,3.431,3.4304,3.4487,3.4512,3.4378,3.4379,3.438,0,3.3343,3.341,3.3495,3.3542,3.3584,3.3662,3.3713,3.3748,3.3801,3.3885,3.3936,3.4021,3.4091,3.4226,3.4275,3.4355,3.4358,3.4417,3.437,3.4359,3.4356,3.435,3.4356,3.4424,3.4426,3.4427,3.4427,0,3.3473,3.349,3.3563,3.3644,3.3705,3.377,3.3834,3.3873,3.3918,3.3977,3.4063,3.4117,3.4225,3.4308,3.4392,3.4433,3.4437,3.4442,3.4459,3.445,3.4431,3.444,3.4274,3.4437,3.4436,3.4435,3.4435,3.4435,3.356,3.3619,3.3687,3.3768,3.382,3.388,3.394,3.3983,3.4056,3.4145,3.4162,3.4254,3.4321,3.4434,3.4478,3.4549,3.4536,3.4561,3.4567,3.4572,3.4574,3.4422,3.4565,3.4565,3.4565,3.4564,3.4564,0,3.3688,3.3733,3.3807,3.3896,3.3959,3.3959,3.4029,3.4082,3.4162,3.4225,3.4293,3.4392,3.4473,3.4529,3.4611,3.4657,3.4661,3.4677,3.4673,3.4682,3.4583,3.4558,3.4672,3.4672,3.4672,3.4672,3.4672,3.4672,3.3762,3.3862,3.3887,3.4012,3.4056,3.4145,3.4185,3.424,3.429,3.4399,3.4466,3.4502,3.4562,3.4648,3.4722,3.4737,3.4765,3.4781,3.4795,3.4701,3.4689,3.4678,3.4655,3.4788,3.4788,3.4888,3.4889,3.4889]},{"header":{"parameterUnit":"m.s-1","parameterCategory":1,"la1":30.2991,"la2":30.254,"lo1":-89.0895,"lo2":-89.0444,"dy":0.0017,"dx":0.0017,"nx":28,"ny":28,"refTime":"2024-07-13T09:00:00:Z","depth":0,"parameterNumber":3,"parameterNumberName":"V-component_of_WINDS"},"data":[0,0,0,0,0,0,0,0,0,0,0,0,0,0,0,0,0,0,0,0,0,0,0,0,0,0,0,0,0,0,0,0,0,0,0,0,0,0,0,0,0,0,0,0,0,0,0,0,0,0,0,0,0,0,0,0,0,0,0.7434,0.7435,0,0.7459,0.746,0.746,0.7467,0.7467,0.7467,0.7466,0.7492,0.7493,0.7494,0,0,0,0,0,0,0,0,0,0,0,0,0,0.7391,0.7391,0.7434,0.7435,0.7435,0.7459,0.746,0.746,0.7467,0.7467,0.7467,0.7466,0.7492,0.7493,0.7494,0,0,0,0,0,0,0,0,0,0,0,0,0,0.7412,0.7392,0.7434,0.7441,0.7442,0.7459,0.746,0.746,0.7467,0.7467,0.7466,0.7466,0.7492,0.7493,0.7494,0.7506,0,0,0.7498,0.7498,0,0,0,0,0,0,0,0,0.7411,0.7414,0.744,0.7441,0.7442,0.746,0.7454,0.7475,0.7467,0.7458,0.7466,0.7466,0.7482,0.7484,0.7489,0.7507,0.7508,0.7498,0.7499,0.7499,0.75,0,0,0,0,0,0,0,0.7409,0.7413,0.7444,0.744,0.7441,0.7443,0.7445,0.7458,0.747,0.7458,0.7459,0.7462,0.7482,0.7488,0.7489,0.7509,0.7498,0.7499,0.75,0.75,0.7535,0.7535,0,0,0,0,0,0,0.7407,0.7411,0.7443,0.7445,0.7425,0.7444,0.7447,0.7454,0.747,0.7473,0.7462,0.7462,0.7486,0.7488,0.749,0.7504,0.7499,0.75,0.7501,0.7535,0.7535,0.7535,0,0,0,0,0,0,0.7406,0.741,0.7442,0.7428,0.7433,0.7445,0.7453,0.7455,0.746,0.7473,0.7475,0.7465,0.7486,0.7489,0.7501,0.7505,0.7501,0.7502,0.7535,0.7535,0.7535,0.7532,0,0,0,0,0,0,0.7405,0.7409,0.7415,0.7428,0.7433,0.7454,0.7453,0.7455,0.7462,0.7463,0.7477,0.7479,0.7486,0.75,0.7503,0.7507,0.7503,0.7535,0.7535,0.7535,0.7532,0.7532,0.7532,0,0,0,0,0,0.7403,0.7413,0.7415,0.7419,0.744,0.7454,0.7457,0.7464,0.7463,0.7468,0.7475,0.7479,0.7504,0.7501,0.7504,0.7509,0.7534,0.7535,0.7535,0.7532,0.7532,0.7532,0,0,0,0,0,0,0.74,0.7415,0.7417,0.7432,0.7442,0.7455,0.7462,0.7464,0.7475,0.7475,0.7483,0.7486,0.7498,0.7505,0.7501,0.752,0.7519,0.752,0.7515,0.7516,0.7516,0.7514,0.7504,0,0,0,0,0,0.7401,0.7411,0.7424,0.7436,0.744,0.745,0.7456,0.7461,0.7471,0.7475,0.7484,0.7493,0.7503,0.751,0.752,0.7532,0.7535,0.7537,0.7537,0.7537,0.7538,0.7543,0.7544,0.7537,0.7537,0.7537,0,0,0.7404,0.7413,0.7419,0.7435,0.7443,0.7453,0.7454,0.7464,0.7471,0.7477,0.7489,0.7495,0.7506,0.7519,0.7525,0.7525,0.754,0.7538,0.7538,0.7539,0.7544,0.7545,0.7545,0.7537,0.7537,0.7537,0,0,0.7413,0.7422,0.7432,0.7439,0.745,0.7456,0.7459,0.7471,0.7475,0.7487,0.7491,0.7499,0.7517,0.7524,0.753,0.7538,0.7541,0.7541,0.7543,0.7548,0.7548,0.7549,0.7551,0.7551,0.7542,0.7542,0.7542,0,0.7415,0.743,0.7437,0.7447,0.7453,0.7457,0.7467,0.7473,0.7487,0.7491,0.7491,0.7511,0.7519,0.7532,0.7534,0.7539,0.7541,0.754,0.7548,0.7548,0.7549,0.7551,0.7552,0.7542,0.7542,0.7542,0.7542,0,0.7431,0.7441,0.7448,0.746,0.7467,0.7477,0.7484,0.749,0.7493,0.7498,0.7509,0.7519,0.7529,0.7533,0.7537,0.7545,0.7545,0.7546,0.7546,0.7549,0.7551,0.7552,0.7542,0.7542,0.7542,0.7542,0,0,0.7442,0.7456,0.7458,0.7463,0.7474,0.7482,0.749,0.75,0.7505,0.7513,0.752,0.7533,0.7533,0.754,0.7544,0.7549,0.7553,0.7549,0.7549,0.7549,0.7562,0.7561,0.7562,0.7554,0.7555,0.7555,0.756,0,0.7452,0.7468,0.7473,0.7486,0.7494,0.7497,0.7505,0.7512,0.7517,0.7524,0.7529,0.7538,0.7538,0.7541,0.7546,0.7552,0.7556,0.7551,0.756,0.7561,0.7557,0.7563,0.7562,0.7567,0.7561,0.7561,0.7562,0,0.7467,0.7475,0.7489,0.7497,0.75,0.7507,0.7515,0.7522,0.7529,0.7532,0.7538,0.7541,0.7549,0.7548,0.7558,0.7555,0.7558,0.7562,0.7562,0.7563,0.7561,0.7564,0.7569,0.757,0.7563,0.7563,0.7563,0,0.7472,0.7486,0.7495,0.7499,0.7509,0.7514,0.7518,0.7525,0.753,0.7537,0.754,0.7548,0.7552,0.7558,0.7562,0.7561,0.7572,0.7571,0.7574,0.7573,0.7576,0.7576,0.7582,0.7579,0.7579,0.7579,0.7579,0,0.7483,0.7491,0.7497,0.7503,0.7512,0.7516,0.7524,0.7529,0.7534,0.754,0.7543,0.7549,0.7555,0.756,0.7564,0.7571,0.7573,0.7575,0.7576,0.7575,0.7575,0.7578,0.7577,0.7579,0.7579,0.7579,0.7579,0,0.7491,0.7496,0.7506,0.7513,0.7515,0.7521,0.7527,0.7532,0.7536,0.7543,0.7545,0.7551,0.7558,0.7563,0.7572,0.7574,0.7581,0.7583,0.7579,0.7579,0.7581,0.7581,0.759,0.7591,0.7587,0.7587,0.7587,0,0.7498,0.7504,0.7511,0.7515,0.7519,0.7526,0.753,0.7534,0.7538,0.7545,0.7549,0.7556,0.7562,0.7572,0.7577,0.7583,0.7584,0.7587,0.7585,0.7583,0.7583,0.7583,0.7583,0.7587,0.7587,0.7587,0.7587,0,0.7509,0.751,0.7516,0.7523,0.7527,0.7533,0.7538,0.7541,0.7545,0.755,0.7556,0.7561,0.7569,0.7575,0.7581,0.7585,0.7586,0.7587,0.7588,0.7587,0.7584,0.7585,0.7579,0.7587,0.7587,0.7587,0.7587,0.7587,0.7516,0.752,0.7526,0.7532,0.7536,0.754,0.7544,0.7548,0.7553,0.756,0.7562,0.7568,0.7573,0.7581,0.7585,0.7589,0.7589,0.7591,0.7591,0.7591,0.759,0.7583,0.759,0.759,0.759,0.759,0.759,0,0.7526,0.7529,0.7535,0.7541,0.7545,0.7545,0.7551,0.7554,0.756,0.7564,0.7569,0.7575,0.758,0.7584,0.759,0.7592,0.7593,0.7593,0.7593,0.7594,0.7591,0.7589,0.7593,0.7593,0.7593,0.7593,0.7593,0.7593,0.7533,0.754,0.7541,0.7549,0.7552,0.7558,0.7561,0.7564,0.7567,0.7574,0.7578,0.758,0.7584,0.7589,0.7593,0.7594,0.7596,0.7596,0.7597,0.7594,0.7594,0.7594,0.7592,0.7597,0.7597,0.76,0.76,0.76]}]]